Flag for U.S.A. Weather past 2 weeks in Houston, Texas, U.S.A.

Now
72 °F

Overcast.


Feels Like: 69 °F
Forecast: 69 / 77 °F
Wind: 6 mph from Northeast

Location: Houston Hobby Airport

Current Time: Apr 18, 2015 at 10:24:37 AM

Latest Report: Apr 18, 2015 at 9:53 AM


Visibility: 10 mi

Pressure: 29.90 "Hg

Humidity: 91%

Dew point: 69 °F

Location of HoustonLocation

Historic Weather in Houston — Graph

°F

Houston temperature yesterday

Maximum temperature yesterday: 81 °F (at 11:53 AM)
Minimum temperature yesterday: 67 °F (at 12:53 AM)
Average temperature yesterday: 72 °F

Past Weeks' High & Low Weather Summary

 TemperatureHumidityPressure
High86 °F (Apr 13, 3:53 PM)100% (Apr 7, 2:53 AM)30.27 "Hg (Apr 7, 2:53 AM)
Low61 °F (Apr 15, 6:53 AM)44% (Apr 7, 5:53 PM)29.76 "Hg (Apr 13, 5:53 AM)
Average73 °F82%29.99 "Hg
* Reported Apr 3 8:53 AM — Apr 18 8:53 AM, Houston, Weather by CustomWeather, © 2015

Note: Actual official high and low records may vary slightly from our data, if they occured in-between our weather recording intervals... More about our weather records

Advertising

Houston weather history for previous 24 hours

 ConditionsComfort  
Time TempWeatherWind HumidityBarometerVisibility
8:53 AM
Sat, Apr 18
71 °FMostly cloudy.3 mph90%29.89 "Hg10 mi
7:53 AM69 °FPartly sunny.7 mph93%29.86 "Hg10 mi
6:53 AM69 °FPassing clouds.5 mph93%29.85 "Hg10 mi
5:53 AM69 °FMostly cloudy.7 mph96%29.83 "Hg9 mi
4:53 AM69 °FPartly cloudy.6 mph96%29.81 "Hg10 mi
3:53 AM70 °FOvercast.10 mph90%29.83 "Hg10 mi
2:53 AM70 °FThunderstorms. Mostly cloudy.14 mph90%29.83 "Hg10 mi
1:53 AM69 °FLight rain. Overcast.9 mph96%29.90 "Hg9 mi
12:53 AM69 °FThunderstorms. Overcast.6 mph93%29.92 "Hg10 mi
11:53 PM
Fri, Apr 17
67 °FThunderstorms. Partly cloudy.No wind97%29.93 "Hg10 mi
10:53 PM69 °FThunderstorms. Overcast.7 mph90%29.96 "Hg10 mi
9:53 PM71 °FThunderstorms. Mostly cloudy.13 mph87%29.89 "Hg10 mi
9:03 PM68 °FStrong thunderstorms. Fog.23 mph94%29.86 "Hg4 mi
8:53 PM67 °FStrong thunderstorms. Fog.28 mph97%29.88 "Hg2 mi
7:53 PM74 °FThunderstorms. Fog.14 mph94%29.83 "Hg3 mi
6:53 PM74 °FStrong thunderstorms. Fog.14 mph94%29.84 "Hg5 mi
5:53 PM75 °FThunderstorms. Mostly cloudy.12 mph88%29.87 "Hg10 mi
4:53 PM77 °FCloudy.8 mph82%29.87 "Hg10 mi
3:53 PM79 °FMostly cloudy.10 mph77%29.88 "Hg10 mi
2:53 PM78 °FCloudy.9 mph79%29.91 "Hg10 mi
1:53 PM79 °FMostly cloudy.12 mph74%29.93 "Hg10 mi
12:53 PM80 °FBroken clouds.9 mph71%29.96 "Hg10 mi
11:53 AM81 °FScattered clouds.8 mph72%29.97 "Hg10 mi
10:53 AM80 °FBroken clouds.10 mph64%29.96 "Hg10 mi
Weather by CustomWeather, © 2015

See weather overviewHow to use our weather pages